Content
SEND FEEDBACK

Daily
Averages
Monthly
Summary
China

KASHI, CHINA


Home > Asia > China
Elevation: 4236 feet     Latitude: 39 28N     Longitude: 075 58E

WEATHER
 
SELECT A DAY
Number of Records: 109,259;   Date Range: 7/6/03 - 7/30/14
 
SHARE

PRINT THIS DATA

[ ← Previous Day ]
WEATHER ALMANAC - SEPTEMBER 21, 2013
[ Next Day → ]
[ °C ]   °F
Weather ElementAverageHighLow
Temperature73 °F87.8 °F (5:00 pm)58 °F (5:00 am)
Dewpoint30.8 °F46 °F (2:00 am)15.8 °F (11:00 pm)
Humidity22.3 %47 % (5:00 am)7 % (8:00 pm)
Barometer29.84 in29.92 in (12:30 am)29.58 in (8:00 pm)
Wind Speed9 mph13.4 mph (4:00 pm)
Weather ElementAverage
Visibility19 mi
Wind DirectionWSW (243 °)

Weather ElementTotal
Precipitation---
Cooling Degree Days7.9 (Base 65)
Growing Degree Days22.9 (Base 50)
Averaged from 33 records on September 21, 2013
WEATHER CONDITIONS BREAKOUT
WIND DIRECTION BREAKOUT
WEATHER BY HOUR - SEPTEMBER 21, 2013
[ °C ]   °F
Local TimeTemperatureDewpointHumidityBarometerVisibilityWind DirectionWind SpeedGust SpeedPrecipitationEventsConditions
12:30 AM69.8 °F39.2 °F33 %29.92 inNW (320°)11.2 mphClear
1:00 AM69.8 °F39.2 °F33 %29.92 inNW (320°)11.2 mphClear
1:30 AM68.0 °F41.0 °F37 %29.92 inNNW (330°)8.9 mphClear
2:00 AM62.0 °F46.0 °F46 %29.70 in19.0 miWNW (290°)2.2 mphClear
2:00 AM66.2 °F41.0 °F40 %29.92 inNNW (330°)11.2 mphClear
2:30 AM66.2 °F39.2 °F37 %29.92 inNNW (330°)11.2 mphClear
3:00 AM66.2 °F37.4 °F35 %29.89 inNW (320°)11.2 mphClear
3:30 AM64.4 °F37.4 °F37 %29.89 inNW (320°)11.2 mphClear
4:00 AM66.2 °F32.0 °F28 %29.89 inNW (320°)8.9 mphClear
4:30 AM66.2 °F28.4 °F24 %29.89 inNW (310°)11.2 mphClear
5:00 AM58.0 °F43.0 °F47 %29.67 in19.0 miWSW (250°)2.2 mphClear
5:00 AM66.2 °F23.0 °F19 %29.89 inNW (320°)11.2 mphClear
5:30 AM66.2 °F23.0 °F19 %29.89 inNW (320°)11.2 mphClear
6:00 AM66.2 °F23.0 °F19 %29.89 inNW (320°)11.2 mphClear
7:00 AM64.4 °F21.2 °F19 %29.89 inWest (260°)11.2 mphClear
8:00 AM68.0 °F21.2 °F17 %29.89 inNW (320°)11.2 mphClear
9:00 AM64.4 °F23.0 °F21 %29.89 inNNW (330°)11.2 mphClear
10:00 AM68.0 °F23.0 °F18 %29.89 inNNW (330°)11.2 mphClear
11:00 AM75.2 °F23.0 °F14 %29.89 inWNW (300°)8.9 mphClear
12:00 PM77.0 °F32.0 °F19 %29.89 inWSW (240°)6.7 mphClear
1:00 PM80.6 °F26.6 °F14 %29.89 inSSW (200°)6.7 mphClear
2:00 PM82.4 °F26.6 °F13 %29.86 inSouth (170°)8.9 mphClear
3:00 PM84.2 °F24.8 °F11 %29.83 inSouth (170°)8.9 mphClear
4:00 PM84.2 °F26.6 °F12 %29.80 inSouth (170°)13.4 mphClear
5:00 PM87.8 °F30.2 °F13 %29.77 inEast (100°)13.4 mphClear
6:00 PM86.0 °F33.8 °F15 %29.77 inSE (140°)11.2 mphClear
7:00 PM86.0 °F33.8 °F15 %29.77 inSouth (170°)8.9 mphClear
8:00 PM85.0 °F31.0 °F7 %29.58 in19.0 miESE (110°)2.2 mphClear
8:00 PM84.2 °F33.8 °F16 %29.80 inSouth (170°)6.7 mphClear
9:00 PM80.6 °F32.0 °F17 %29.83 inVariable2.2 mphClear
10:00 PM77.0 °F30.2 °F18 %29.86 inVariable6.7 mphClear
11:00 PM73.0 °F35.0 °F15 %29.65 in19.0 miEast (90°)2.2 mphClear
11:00 PM80.6 °F15.8 °F9 %29.86 inNorth (350°)11.2 mphClear
Hourly data recorded from ZWSH, located miles away from Kashi, China







STORIES FROM OUR PARTNERS